カタログに戻る

COSMOS 2491 DEB

運用中PO
NORAD 57550·DEBRIS·🇷🇺 Russia

打ち上げ Dec 25, 2013 から Plesetsk Cosmodrome

Loading…

次のパス (今後24時間)

TLE

経年Source: Space-Track

元期: Sep 4, 2026, 17:31 UTC

1 57550U 13076AM  26247.73035989  .00002539  00000-0  10905-1 0  9999
2 57550  82.4578  44.6691 0194357 266.7251  91.1597 12.75781055154234

AllMySatでCOSMOS 2491 DEBをリアルタイム追跡

Download on the App Store